STARLINK-1579, 46083

Orbit data source: Space-Track

STARLINK-1579, 46083 is a payload satellite owned by SpaceX/Seattle (US) in LEO that was launched on Fri, 07 Aug 2020 UTC via an FALCON 9 launch vehicle from the Air Force Eastern Test Range (AFETR). Payloads include a variety of satellites, spacecraft, and rockets equipped with specific instruments for various scientific and technological missions. These include communications satellites like Starlink; space stations such as the ISS; scientific satellites like the Hubble; Earth observation satellites from companies like Planet Labs, Umbra, and HawkEye 360; GPS; miniature CubeSats for education and research; and military/defense satellites.

Loading next visibility...
STARLINK-1579 details
Identifier
46083, 2020-055BJ
Orbit
LEO
Last TLE update8 hours ago
Origin
Flag of USSpaceX/Seattle (US)
ManufacturerSpaceX/Seattle
MissionOperational Commercial Communications
Bus & MotorSTARLINK, Unknown motor
Mass260 kg wet, ~248 kg dry
Launch date (UTC)
2020-08-07 (4 years ago)
Launch vehicle
FALCON 9
Launch site
Air Force Eastern Test Range (AFETR)
Object type
Payload
Rocket body
Debris
Shape & HBRBox + 1 Pan, 8.86 m
Radar Cross Section13.562 m², Large (>1 m²)

Expand to show TLE details & history

TLE from 8 hours ago
0 STARLINK-1579
1 46083U 20055BJ  24339.06941883  .00025294  00000-0  17100-2 0  9996
2 46083  53.0544   4.4109 0001236  83.4634 276.6496 15.06419998239345
Epoch: 2024-12-04T01:39Z
Definitive object data (Epoch: 2024-12-04T01:39:57.786Z)
Latitude-0.00002°
Longitude-93.94975°
Altitude547.93 km
Speed7.589 km/s
True Right ascension00h 17m 38s
True Declination0° 00' 00"
Sunlit
Object was in daylight at TLE epoch
Visualization TLE readout
Latitude-19.44837°
Longitude-110.73286°
Altitude552.736 km
Speed7.585 km/s
Apparent Right ascension21h 35m 30s
Apparent Declination-32° 10' 54"
Sunlit
Object is in daylight
Visualization observer readout
Local Sidereal Time07:25:26
Azimuth276.204° WNW
Elevation-62.767°
Doppler factor1
Orbital elements
Apogee altitude548.277 km
Perigee altitude546.565 km
Semi-major axis6,925.558 km
Eccentricity0.0001236
Inclination53.0544°
RAAN4.4109°
Arg. of periapsis83.4634°
True anomaly276.63553°
Mean anomaly276.6496°
Eccentric anomaly276.64257°
Mean motion3.76583 °/min
BSTAR0.00171
Orbital period95.6 mins
Loading maneuver chart data...
Loading historical data...
Loading historical data...
Loading historical data...
Loading historical data...
Loading historical data...
Loading historical data...
Loading historical data...

STARLINK-1579 Visibility forecast

Observer location: undefined°, undefined

Span
Click to sort rows by Start time (UTC) header in descending order
Start Az.
Max El. time (UTC)
Max El. Az.
Max El.
End time (UTC)
End Az.
6 mins2024-12-04 10:04:09.062Z332.539° NNW2024-12-04 10:07:09.062Z23.406° NE21.033°2024-12-04 10:10:09.062Z73.98° E
6 mins2024-12-04 11:44:09.062Z306.407° NW2024-12-04 11:47:09.062Z197.098° SSW44.377°2024-12-04 11:50:09.062Z136.375° SSE
4 mins2024-12-05 03:18:09.062Z160.728° S2024-12-05 03:20:09.062Z124.266° SE18.307°2024-12-05 03:22:09.062Z90.115° ESE
7 mins2024-12-05 04:56:09.062Z247.16° WSW2024-12-05 04:59:09.062Z322.951° NNW40.431°2024-12-05 05:03:09.062Z43.916° NE
|